Weather History for Traverse City, MI

Change the Weather History Date:

Saturday, February 2, 2013

  Actual Average Record
Temperature  
Mean Temperature 14 °F 21 °F  
Max Temperature 18 °F 28 °F 44 °F (1903)
Min Temperature 9 °F 14 °F -23 °F (1961)
Degree Days  
Heating Degree Days 51 44  
Month to date heating degree days 102 88  
Since 1 July heating degree days 3781 4244  
Moisture  
Dew Point 6 °F    
Average Humidity 70    
Maximum Humidity 84    
Minimum Humidity 56    
Precipitation  
Precipitation 0.03 in 0.06 in 0.36 in (1973)
Month to date precipitation 0.03 0.12  
Year to date precipitation 2.25 2.94  
Snow  
Snow 0.00 in - - ()
Snow Depth 9.00 in    
Sea Level Pressure  
Sea Level Pressure 30.04 in    
Wind  
Wind Speed 3 mph (SSW)    
Max Wind Speed 13 mph    
Max Gust Speed 15 mph    
Visibility 4 miles    
Events Snow    
T = Trace of Precipitation, MM = Missing Value Source: NWS Daily Summary

Daily Weather History Graph

Daily Weather History Graph

Search for Another Location

Airport:

Trip Planner

Search our weather history database for the weather conditions in past years. The results will help you decide how hot, cold, wet, or windy it might be!

Date:

Astronomy

Feb. 02, 2013 Rise Set
Actual Time 8:00 AM EST 5:52 PM EST
Civil Twilight 7:29 AM EST 6:23 PM EST
Nautical Twilight 6:54 AM EST 6:58 PM EST
Astronomical Twilight 6:19 AM EST 7:32 PM EST
Moon 12:16 AM EST (2/2) 10:50 AM EST (2/2)
Length of Visible Light 10h 54m
Length of Day
9h 52m
Waning Gibbous, 60% of the Moon is Illuminated
Feb 2
Waning Gibbous
Feb 3
Last Quarter
Feb 10
New
Feb 17
First Quarter
Feb 25
Full

Hourly Weather History & Observations

Time (EST) Temp. Windchill Dew Point Humidity Pressure Visibility Wind Dir Wind Speed Gust Speed Precip Events Conditions
12:53 AM 10.0 °F -1.9 °F 3.0 °F 73% 30.12 in 7.0 mi WSW 8.1 mph - N/A   Overcast
1:33 AM 10.4 °F 0.8 °F 3.2 °F 73% 30.06 in 2.5 mi WSW 5.8 mph - 0.00 in Snow Light Snow
1:46 AM 8.6 °F -2.6 °F 3.2 °F 79% 30.05 in 1.8 mi WSW 6.9 mph - 0.00 in Snow Light Snow
1:53 AM 9.0 °F -3.2 °F 3.9 °F 80% 30.09 in 2.0 mi WSW 8.1 mph - 0.00 in Snow Light Snow
2:32 AM 8.6 °F 0.1 °F 3.2 °F 79% 30.05 in 3.0 mi WSW 4.6 mph - 0.00 in Snow Light Snow
2:53 AM 9.0 °F 2.4 °F 3.9 °F 80% 30.09 in 5.0 mi WSW 3.5 mph - 0.00 in   Haze
3:28 AM 8.6 °F 0.1 °F 3.2 °F 79% 30.05 in 2.0 mi SW 4.6 mph - 0.00 in Snow Light Snow
3:48 AM 8.6 °F 2.0 °F 3.2 °F 79% 30.04 in 2.0 mi SW 3.5 mph - 0.00 in Snow Light Snow
4:19 AM 8.6 °F - 5.0 °F 85% 30.03 in 2.0 mi Calm Calm - 0.00 in Snow Light Snow
4:27 AM 8.6 °F - 5.0 °F 85% 30.03 in 2.5 mi Calm Calm - 0.00 in Snow Light Snow
4:53 AM 9.0 °F - 5.0 °F 84% 30.07 in 2.5 mi Calm Calm - 0.00 in Snow Light Snow
5:53 AM 9.0 °F -0.9 °F 3.9 °F 80% 30.06 in 2.5 mi West 5.8 mph - 0.00 in Snow Light Snow
6:01 AM 10.4 °F 4.0 °F 3.2 °F 73% 30.02 in 4.0 mi Variable 3.5 mph - 0.00 in Snow Light Snow
7:53 AM 9.0 °F - 3.9 °F 80% 30.06 in 6.0 mi Calm Calm - 0.00 in   Haze
8:53 AM 9.0 °F - 3.9 °F 80% 30.07 in 6.0 mi Calm Calm - 0.00 in Snow Light Snow
9:53 AM 10.9 °F 2.9 °F 5.0 °F 77% 30.06 in 4.0 mi WSW 4.6 mph - 0.00 in Snow Light Snow
10:00 AM 10.4 °F 2.2 °F 5.0 °F 79% 30.02 in 3.0 mi WSW 4.6 mph - 0.00 in Snow Light Snow
10:53 AM 12.0 °F 2.7 °F 5.0 °F 73% 30.06 in 4.0 mi West 5.8 mph - 0.00 in Snow Light Snow
11:10 AM 12.2 °F 6.1 °F 6.8 °F 79% 30.02 in 1.0 mi West 3.5 mph - 0.00 in Snow Light Snow
11:31 AM 14.0 °F - 8.6 °F 79% 30.02 in 0.5 mi Calm Calm - 0.01 in Snow Light Snow
11:53 AM 12.9 °F 6.9 °F 9.0 °F 84% 30.06 in 0.5 mi ESE 3.5 mph - 0.01 in Snow Light Snow
12:02 PM 14.0 °F 6.5 °F 8.6 °F 79% 30.02 in 1.5 mi Variable 4.6 mph - 0.00 in Snow Light Snow
12:39 PM 14.0 °F - 10.4 °F 86% 30.01 in 0.5 mi Calm Calm - 0.00 in Snow Light Snow
12:53 PM 15.1 °F - 10.0 °F 80% 30.05 in 0.5 mi Calm Calm - 0.00 in Snow Light Snow
1:03 PM 14.0 °F - 10.4 °F 86% 30.00 in 4.0 mi Calm Calm - 0.00 in Snow Light Snow
1:16 PM 15.8 °F - 8.6 °F 73% 30.00 in 5.0 mi Calm Calm - 0.00 in Snow Light Snow
1:53 PM 16.0 °F - 5.0 °F 62% 30.04 in 7.0 mi Calm Calm - 0.00 in Snow Light Snow
2:32 PM 17.6 °F - 8.6 °F 68% 29.99 in 0.8 mi Calm Calm - 0.00 in Snow Light Snow
2:45 PM 15.8 °F - 10.4 °F 79% 29.99 in 2.0 mi Calm Calm - 0.01 in Snow Light Snow
2:53 PM 16.0 °F - 10.9 °F 81% 30.04 in 2.0 mi Calm Calm - 0.01 in Snow Light Snow
2:59 PM 15.8 °F - 10.4 °F 79% 29.99 in 1.0 mi Calm Calm - 0.01 in Snow Light Snow
3:22 PM 15.8 °F 10.2 °F 10.4 °F 79% 30.00 in 0.8 mi NE 3.5 mph - 0.01 in Snow Light Snow
3:37 PM 15.8 °F 8.6 °F 10.4 °F 79% 30.00 in 2.5 mi ESE 4.6 mph - 0.01 in Snow Light Snow
3:51 PM 15.8 °F 6.1 °F 10.4 °F 79% 30.00 in 2.5 mi East 6.9 mph - 0.01 in Snow Light Snow
3:53 PM 16.0 °F 7.4 °F 10.9 °F 81% 30.04 in 2.5 mi ESE 5.8 mph - 0.01 in Snow Light Snow
4:05 PM 15.8 °F 8.6 °F 10.4 °F 79% 30.00 in 4.0 mi ENE 4.6 mph - 0.00 in Snow Light Snow
4:44 PM 15.8 °F 10.2 °F 6.8 °F 68% 30.00 in 10.0 mi ENE 3.5 mph - 0.00 in   Overcast
4:53 PM 16.0 °F - 7.0 °F 68% 30.05 in 10.0 mi Calm Calm - 0.00 in   Overcast
5:53 PM 17.1 °F 10.0 °F 5.0 °F 59% 30.06 in 10.0 mi NNE 4.6 mph - N/A   Overcast
6:53 PM 15.1 °F - 5.0 °F 64% 30.07 in 10.0 mi Calm Calm - N/A   Overcast
7:53 PM 14.0 °F 6.5 °F 5.0 °F 67% 30.07 in 10.0 mi SE 4.6 mph - N/A   Overcast
8:53 PM 12.9 °F 6.9 °F 5.0 °F 71% 30.06 in 10.0 mi SE 3.5 mph - N/A   Overcast
9:53 PM 12.9 °F 5.2 °F 3.9 °F 67% 30.04 in 10.0 mi SSE 4.6 mph - N/A   Overcast
10:53 PM 12.0 °F 4.1 °F 3.0 °F 67% 30.04 in 10.0 mi WSW 4.6 mph - N/A   Overcast
11:53 PM 10.9 °F - 3.9 °F 73% 30.02 in 10.0 mi Calm Calm - N/A   Mostly Cloudy